Location: 81360 Arifat, France
(43.7204°N, 2.3408°E)
Time: 03:13:43
(UTC+01:00)

Transit 4A - Visible Passes

Search period start: 05 December 2025 00:00
Search period end: 15 December 2025 00:00
Orbit: 869 x 972 km, 66.8° (Epoch: 04 December)

Date Brightness Start Highest point End Pass type
(mag) Time Alt. Az. Time Alt. Az. Time Alt. Az.
05 Dec 9.2 05:27:58 22° N 05:31:00 34° NE 05:36:29 10° ESE visible
05 Dec 8.2 07:11:44 10° NW 07:17:29 49° WSW 07:23:22 10° S visible
06 Dec 10.5 03:53:28 12° NE 03:53:28 12° NE 03:54:38 10° NE visible
06 Dec 8.7 05:36:59 26° N 05:39:58 46° NE 05:45:49 10° SE visible
06 Dec 8.7 07:20:48 10° NW 07:26:07 33° WSW 07:31:31 10° S visible
07 Dec 10.3 04:02:34 15° NE 04:02:34 15° NE 04:05:00 10° ENE visible
07 Dec 8.2 05:46:04 32° NNW 05:48:51 64° NE 05:54:56 10° SE visible
07 Dec 9.1 07:30:07 10° WNW 07:34:40 23° WSW 07:39:19 10° SSW visible
08 Dec 10.0 04:11:43 20° NE 04:11:43 20° NE 04:15:00 10° E visible
08 Dec 7.8 05:55:14 39° NNW 05:57:39 89° ENE 06:03:49 10° SSE visible
09 Dec 9.7 04:20:57 25° ENE 04:20:57 25° ENE 04:24:46 10° E visible
09 Dec 7.8 06:04:29 43° NW 06:06:24 64° WSW 06:12:28 10° SSE visible
09 Dec 9.7 19:23:47 10° SSE 19:24:56 14° SSE 19:24:56 14° SSE visible
09 Dec 10.4 21:08:14 10° SW 21:08:28 11° SW 21:08:28 11° SW visible
10 Dec 9.4 04:30:16 31° E 04:30:16 31° E 04:34:16 10° ESE visible
10 Dec 8.2 06:13:48 39° W 06:15:04 44° WSW 06:20:52 10° S visible
10 Dec 9.0 19:31:34 10° S 19:34:27 25° SSE 19:34:27 25° SSE visible
10 Dec 10.3 21:17:22 10° WSW 21:17:59 13° WSW 21:17:59 13° WSW visible
11 Dec 9.2 04:39:39 36° ESE 04:39:39 36° ESE 04:43:33 10° SE visible
11 Dec 8.6 06:23:11 30° W 06:23:40 30° WSW 06:28:57 10° SSW visible
11 Dec 8.4 19:39:46 10° S 19:43:55 41° SSE 19:43:55 41° SSE visible
11 Dec 10.4 21:26:42 10° WSW 21:27:27 13° WSW 21:27:27 13° WSW visible
12 Dec 9.1 04:49:07 35° SE 04:49:07 35° SE 04:52:36 10° SE visible
12 Dec 9.2 06:32:39 21° WSW 06:32:39 21° WSW 06:36:37 10° SSW visible
12 Dec 9.6 18:08:15 10° ESE 18:08:47 10° E 18:09:19 10° E visible
12 Dec 7.8 19:48:14 10° SSW 19:53:20 66° SSE 19:53:20 66° SSE visible
12 Dec 10.5 21:36:17 10° W 21:36:52 12° W 21:36:52 12° W visible
13 Dec 9.3 04:58:38 29° SSE 04:58:38 29° SSE 05:01:26 10° SSE visible
13 Dec 9.7 06:42:10 13° WSW 06:42:10 13° WSW 06:43:32 10° SW visible
13 Dec 9.3 18:13:43 10° SE 18:17:12 16° ESE 18:19:09 14° E visible
13 Dec 7.7 19:56:57 10° SW 20:02:40 79° WNW 20:02:40 79° WNW visible
13 Dec 10.7 21:46:07 10° W 21:46:12 10° WNW 21:46:12 10° WNW visible
14 Dec 9.7 05:08:11 20° S 05:08:11 20° S 05:10:02 10° SSE visible
14 Dec 8.8 18:21:05 10° SSE 18:25:42 25° ESE 18:28:26 18° ENE visible
14 Dec 8.2 20:05:53 10° SW 20:11:35 55° NW 20:11:57 55° NW visible
